Regional Weather Roundup
Issued by NWS Cleveland, OH

Home | Current Version | Previous Version | Text Only | Print | Product List | Glossary On
Versions: 1 2 3 4 5 6 7 8 9 10 11 12 13 14 15 16 17 18 19 20 21 22 23 24 25 26 27 28 29 30 31 32 33 34 35 36 37 38 39 40 41 42 43 44 45 46 47 48 49 50
000
ASUS41 KCLE 010002
RWRCLE
OHIO REGIONAL WEATHER ROUNDUP
NATIONAL WEATHER SERVICE CLEVELAND, OH
800 PM EDT FRI JUL 31 2015

NOTE: "FAIR" INDICATES FEW OR NO CLOUDS BELOW 12,000 FEET WITH NO
SIGNIFICANT WEATHER AND/OR OBSTRUCTIONS TO VISIBILITY.

OHZ001>008-015>018-024>027-034-035-043-044-010100-
   NORTHWEST OHIO

CITY           SKY/WX    TMP DP  RH WIND       PRES   REMARKS
DEFIANCE       CLEAR     82  54  37 NW7       29.89F
FINDLAY        CLEAR     78  64  61 SW8       29.89S
TOLEDO EXPRESS CLEAR     80  54  40 W10       29.88R
TOLEDO EXEC    CLEAR     82  51  34 W13       29.88R
LIMA           PTCLDY    77  64  64 W9        29.92S
$$

OHZ009>014-019>023-028>033-038-089-010100-
   NORTHEAST OHIO

CITY           SKY/WX    TMP DP  RH WIND       PRES   REMARKS
CLE-HOPKINS    MOCLDY    81  58  45 SW16      29.87S
CLE-LAKEFRONT  MOCLDY    83  58  42 SW14      29.83S
CUY CO. ARPT   MOCLDY    82  59  44 W12       29.86S
LORAIN-ELYRIA  CLOUDY    79  58  48 W12G23    29.87R
ASHTABULA      MOCLDY    79  56  45 SW6       29.85F
AKRON-CANTON   PTCLDY    80  56  43 SW7       29.89S
WOOSTER        CLOUDY    77  59  53 SW7       29.90S
MANSFIELD      MOCLDY    77  58  51 SW10      29.92R
YOUNGSTOWN     PTCLDY    80  55  42 SW7       29.87F
$$

OHZ042-051>053-060>062-070>072-077>081-010100-
  SOUTHWEST OHIO

CITY           SKY/WX    TMP DP  RH WIND       PRES   REMARKS
CINC-COVINGTON PTCLDY    82  59  45 W5        29.97S
CINC-LUNKEN    CLEAR     83  57  41 W10       29.95S
HAMILTON       CLEAR     83  60  45 W6        29.95F
DAYTON         MOCLDY    72  67  84 NW12      29.96R
WRIGHT-PAT AFB NOT AVBL
DAYTON GENERAL PTCLDY    82  58  43 W10       29.94F
WILMINGTON     MOCLDY    80  58  46 W8        29.95F
$$

OHZ036-037-039>041-045>050-054>059-063>069-073>076-082>088-010100-
  CENTRAL AND SOUTHEAST OHIO

CITY           SKY/WX    TMP DP  RH WIND       PRES   REMARKS
COLUMBUS       CLOUDY    82  58  43 SW7       29.91F
OSU AIRPORT    CLOUDY    79  61  53 W8        29.92F
BOLTON FIELD   NOT AVBL
RICKENBACK AFB CLOUDY    79  63  57 SW3       29.92F
NEWARK         CLOUDY    80  60  50 W6        29.91S
MARION         CLOUDY    79  59  50 W7        29.92S
LANCASTER      CLOUDY    78  63  59 SW3       29.93F
ZANESVILLE     PTCLDY    79  58  48 W6        29.92S
NEW PHILLY     CLEAR     78  59  51 SW3       29.90F
$$


USA.gov is the U.S. government's official web portal to all federal, state and local government web resources and services.